TimeEST,TemperatureF,Dew PointF,Humidity,Sea Level PressureIn,VisibilityMPH,Wind Direction,Wind SpeedMPH,Gust SpeedMPH,PrecipitationIn,Events,Conditions,WindDirDegrees,DateUTC
12:15 AM,33.8,30.2,87,29.92,10.0,East,5.8,-,N/A,,Clear,80,2013-03-06 05:15:00
12:35 AM,33.8,30.2,87,29.92,10.0,ENE,4.6,-,N/A,,Clear,60,2013-03-06 05:35:00
12:55 AM,33.8,30.2,87,29.90,10.0,ENE,6.9,-,N/A,,Clear,70,2013-03-06 05:55:00
1:15 AM,35.6,30.2,81,29.90,10.0,East,8.1,-,N/A,,Clear,80,2013-03-06 06:15:00
1:35 AM,35.6,32.0,87,29.89,10.0,ENE,8.1,-,N/A,,Clear,70,2013-03-06 06:35:00
1:55 AM,35.6,32.0,87,29.87,10.0,ENE,8.1,-,N/A,,Clear,70,2013-03-06 06:55:00
2:15 AM,35.6,32.0,87,29.86,10.0,ENE,8.1,-,N/A,,Clear,70,2013-03-06 07:15:00
2:35 AM,35.6,32.0,87,29.85,10.0,ENE,9.2,-,N/A,,Clear,70,2013-03-06 07:35:00
2:55 AM,35.6,32.0,87,29.83,10.0,ENE,11.5,-,N/A,,Clear,70,2013-03-06 07:55:00
3:15 AM,35.6,32.0,87,29.82,10.0,ENE,10.4,-,N/A,,Clear,70,2013-03-06 08:15:00
3:35 AM,37.4,32.0,81,29.82,10.0,ENE,9.2,-,N/A,,Clear,70,2013-03-06 08:35:00
3:55 AM,37.4,32.0,81,29.81,10.0,ENE,12.7,19.6,N/A,,Clear,70,2013-03-06 08:55:00
4:15 AM,37.4,32.0,81,29.80,10.0,ENE,15.0,18.4,N/A,,Clear,70,2013-03-06 09:15:00
4:35 AM,37.4,32.0,81,29.79,10.0,ENE,17.3,24.2,N/A,,Scattered Clouds,70,2013-03-06 09:35:00
4:55 AM,37.4,32.0,81,29.79,10.0,ENE,12.7,-,N/A,,Mostly Cloudy,70,2013-03-06 09:55:00
5:15 AM,39.2,32.0,75,29.79,10.0,ENE,16.1,26.5,N/A,,Overcast,70,2013-03-06 10:15:00
5:35 AM,39.2,32.0,75,29.79,10.0,East,18.4,26.5,N/A,,Overcast,80,2013-03-06 10:35:00
5:55 AM,39.2,32.0,75,29.78,10.0,ENE,19.6,29.9,N/A,,Overcast,70,2013-03-06 10:55:00
6:15 AM,39.2,32.0,75,29.77,10.0,ENE,19.6,26.5,N/A,,Overcast,60,2013-03-06 11:15:00
6:35 AM,39.2,32.0,75,29.77,10.0,ENE,18.4,29.9,N/A,,Overcast,60,2013-03-06 11:35:00
6:55 AM,39.2,32.0,75,29.78,10.0,ENE,20.7,34.5,N/A,,Overcast,70,2013-03-06 11:55:00
7:15 AM,39.2,33.8,81,29.79,10.0,ENE,16.1,29.9,N/A,,Overcast,60,2013-03-06 12:15:00
7:35 AM,39.2,33.8,81,29.79,10.0,ENE,17.3,27.6,N/A,,Overcast,60,2013-03-06 12:35:00
7:55 AM,39.2,33.8,81,29.78,10.0,ENE,18.4,28.8,N/A,,Overcast,60,2013-03-06 12:55:00
8:15 AM,39.2,33.8,81,29.78,10.0,ENE,20.7,32.2,N/A,,Mostly Cloudy,60,2013-03-06 13:15:00
8:35 AM,39.2,33.8,81,29.78,5.0,ENE,20.7,33.4,N/A,,Mostly Cloudy,70,2013-03-06 13:35:00
8:55 AM,39.2,33.8,81,29.77,7.0,ENE,17.3,29.9,N/A,,Overcast,60,2013-03-06 13:55:00
9:15 AM,39.2,35.6,87,29.78,5.0,ENE,24.2,33.4,N/A,,Overcast,60,2013-03-06 14:15:00
9:35 AM,37.4,35.6,93,29.78,5.0,ENE,20.7,29.9,N/A,,Overcast,60,2013-03-06 14:35:00
9:55 AM,37.4,35.6,93,29.77,7.0,NE,17.3,39.1,N/A,,Mostly Cloudy,50,2013-03-06 14:55:00
10:15 AM,37.4,35.6,93,29.77,5.0,NE,20.7,33.4,N/A,,Overcast,50,2013-03-06 15:15:00